owner,sensor,date,latitude,longitude,vertical_datum,mass_concentration_of_oxygen_in_sea_water,qcFlag 
SCCF RECON,ioos:station:SCCF:13:1,2013-05-01T00:00:00Z,26.5255,-82.0032,2.6,7.25,1111122 
SCCF RECON,ioos:station:SCCF:13:1,2013-05-01T01:00:00Z,26.5255,-82.0032,2.512,6.78,1111122 
SCCF RECON,ioos:station:SCCF:13:1,2013-05-01T02:00:00Z,26.5255,-82.0032,2.437,6.75,1111122 
SCCF RECON,ioos:station:SCCF:13:1,2013-05-01T03:00:00Z,26.5255,-82.0032,2.357,6.64,1111122 
SCCF RECON,ioos:station:SCCF:13:1,2013-05-01T04:00:00Z,26.5255,-82.0032,2.261,6.69,1111122 
SCCF RECON,ioos:station:SCCF:13:1,2013-05-01T05:00:00Z,26.5255,-82.0032,2.194,6.49,1111122 
SCCF RECON,ioos:station:SCCF:13:1,2013-05-01T06:00:00Z,26.5255,-82.0032,2.17,6.31,1111122 
SCCF RECON,ioos:station:SCCF:13:1,2013-05-01T07:00:00Z,26.5255,-82.0032,2.221,6.19,1111122 
SCCF RECON,ioos:station:SCCF:13:1,2013-05-01T08:00:00Z,26.5255,-82.0032,2.321,6.13,1111122 
SCCF RECON,ioos:station:SCCF:13:1,2013-05-01T09:00:00Z,26.5255,-82.0032,2.41,5.59,1111122 
SCCF RECON,ioos:station:SCCF:13:1,2013-05-01T10:00:00Z,26.5255,-82.0032,2.455,5.7,1111122 
SCCF RECON,ioos:station:SCCF:13:1,2013-05-01T11:00:00Z,26.5255,-82.0032,2.49,5.85,1111122 
SCCF RECON,ioos:station:SCCF:13:1,2013-05-01T12:00:00Z,26.5255,-82.0032,2.532,5.75,1111122 
SCCF RECON,ioos:station:SCCF:13:1,2013-05-01T13:00:00Z,26.5255,-82.0032,2.531,5.7,1111122 
SCCF RECON,ioos:station:SCCF:13:1,2013-05-01T14:00:00Z,26.5255,-82.0032,2.489,5.61,1111122 
SCCF RECON,ioos:station:SCCF:13:1,2013-05-01T15:00:00Z,26.5255,-82.0032,2.45,5.64,1111122 
SCCF RECON,ioos:station:SCCF:13:1,2013-05-01T16:00:00Z,26.5255,-82.0032,2.46,5.55,1111122 
SCCF RECON,ioos:station:SCCF:13:1,2013-05-01T17:00:00Z,26.5255,-82.0032,2.51,5.36,1111122 
SCCF RECON,ioos:station:SCCF:13:1,2013-05-01T18:00:00Z,26.5255,-82.0032,2.584,5.68,1111122 
SCCF RECON,ioos:station:SCCF:13:1,2013-05-01T19:00:00Z,26.5255,-82.0032,2.526,5.98,1111122 
SCCF RECON,ioos:station:SCCF:13:1,2013-05-01T20:00:00Z,26.5255,-82.0032,2.569,6.1,1111122 
SCCF RECON,ioos:station:SCCF:13:1,2013-05-01T21:00:00Z,26.5255,-82.0032,2.62,6.28,1111122 
SCCF RECON,ioos:station:SCCF:13:1,2013-05-01T22:00:00Z,26.5255,-82.0032,2.69,6.3,1111122 
SCCF RECON,ioos:station:SCCF:13:1,2013-05-01T23:00:00Z,26.5255,-82.0032,2.793,6.25,1111122 
SCCF RECON,ioos:station:SCCF:13:1,2013-05-02T00:00:00Z,26.5255,-82.0032,2.809,6.02,1111122 
SCCF RECON,ioos:station:SCCF:13:1,2013-05-02T01:00:00Z,26.5255,-82.0032,2.68,6.0,1111122 
SCCF RECON,ioos:station:SCCF:13:1,2013-05-02T02:00:00Z,26.5255,-82.0032,2.55,5.68,1111122 
SCCF RECON,ioos:station:SCCF:13:1,2013-05-02T03:00:00Z,26.5255,-82.0032,2.47,5.6,1111122 
SCCF RECON,ioos:station:SCCF:13:1,2013-05-02T04:00:00Z,26.5255,-82.0032,2.38,5.55,1111122 
SCCF RECON,ioos:station:SCCF:13:1,2013-05-02T05:00:00Z,26.5255,-82.0032,2.299,5.71,1111122 
SCCF RECON,ioos:station:SCCF:13:1,2013-05-02T06:00:00Z,26.5255,-82.0032,2.22,5.75,1111122 
SCCF RECON,ioos:station:SCCF:13:1,2013-05-02T07:00:00Z,26.5255,-82.0032,2.19,5.62,1111122 
SCCF RECON,ioos:station:SCCF:13:1,2013-05-02T08:00:00Z,26.5255,-82.0032,2.27,5.51,1111122 
SCCF RECON,ioos:station:SCCF:13:1,2013-05-02T09:00:00Z,26.5255,-82.0032,2.36,5.46,1111122 
SCCF RECON,ioos:station:SCCF:13:1,2013-05-02T10:00:00Z,26.5255,-82.0032,2.434,5.2,1111122 
SCCF RECON,ioos:station:SCCF:13:1,2013-05-02T11:00:00Z,26.5255,-82.0032,2.489,4.98,1111122 
SCCF RECON,ioos:station:SCCF:13:1,2013-05-02T12:00:00Z,26.5255,-82.0032,2.51,5.0,1111122 
SCCF RECON,ioos:station:SCCF:13:1,2013-05-02T13:00:00Z,26.5255,-82.0032,2.523,4.99,1111122 
SCCF RECON,ioos:station:SCCF:13:1,2013-05-02T14:00:00Z,26.5255,-82.0032,2.512,5.06,1111122 
SCCF RECON,ioos:station:SCCF:13:1,2013-05-02T15:00:00Z,26.5255,-82.0032,2.47,4.95,1111122 
SCCF RECON,ioos:station:SCCF:13:1,2013-05-02T16:00:00Z,26.5255,-82.0032,2.39,4.86,1111122 
SCCF RECON,ioos:station:SCCF:13:1,2013-05-02T17:00:00Z,26.5255,-82.0032,2.34,5.15,1111122 
SCCF RECON,ioos:station:SCCF:13:1,2013-05-02T18:00:00Z,26.5255,-82.0032,2.36,5.31,1111122 
SCCF RECON,ioos:station:SCCF:13:1,2013-05-02T19:00:00Z,26.5255,-82.0032,2.32,5.31,1111122 
SCCF RECON,ioos:station:SCCF:13:1,2013-05-02T20:00:00Z,26.5255,-82.0032,2.28,5.83,1111122 
SCCF RECON,ioos:station:SCCF:13:1,2013-05-02T21:00:00Z,26.5255,-82.0032,2.423,5.37,1111122 
SCCF RECON,ioos:station:SCCF:13:1,2013-05-02T22:00:00Z,26.5255,-82.0032,2.47,5.04,1111122 
SCCF RECON,ioos:station:SCCF:13:1,2013-05-02T23:00:00Z,26.5255,-82.0032,2.526,5.11,1111122 
SCCF RECON,ioos:station:SCCF:13:1,2013-05-03T00:00:00Z,26.5255,-82.0032,2.529,5.2,1111122 
SCCF RECON,ioos:station:SCCF:13:1,2013-05-03T01:00:00Z,26.5255,-82.0032,2.49,5.17,1111122 
SCCF RECON,ioos:station:SCCF:13:1,2013-05-03T02:00:00Z,26.5255,-82.0032,2.49,4.94,1111122 
SCCF RECON,ioos:station:SCCF:13:1,2013-05-03T03:00:00Z,26.5255,-82.0032,2.4,5.15,1111122 
SCCF RECON,ioos:station:SCCF:13:1,2013-05-03T04:00:00Z,26.5255,-82.0032,2.314,5.23,1111122 
SCCF RECON,ioos:station:SCCF:13:1,2013-05-03T05:00:00Z,26.5255,-82.0032,2.247,5.56,1111122 
SCCF RECON,ioos:station:SCCF:13:1,2013-05-03T06:00:00Z,26.5255,-82.0032,2.19,5.56,1111122 
SCCF RECON,ioos:station:SCCF:13:1,2013-05-03T07:00:00Z,26.5255,-82.0032,2.13,5.67,1111122 
SCCF RECON,ioos:station:SCCF:13:1,2013-05-03T08:00:00Z,26.5255,-82.0032,2.12,5.53,1111122 
SCCF RECON,ioos:station:SCCF:13:1,2013-05-03T09:00:00Z,26.5255,-82.0032,2.23,5.42,1111122 
SCCF RECON,ioos:station:SCCF:13:1,2013-05-03T10:00:00Z,26.5255,-82.0032,2.35,5.02,1111122 
SCCF RECON,ioos:station:SCCF:13:1,2013-05-03T11:00:00Z,26.5255,-82.0032,2.4,4.8,1111122 
SCCF RECON,ioos:station:SCCF:13:1,2013-05-03T12:00:00Z,26.5255,-82.0032,2.45,4.83,1111122 
SCCF RECON,ioos:station:SCCF:13:1,2013-05-03T13:00:00Z,26.5255,-82.0032,2.496,4.92,1111122 
SCCF RECON,ioos:station:SCCF:13:1,2013-05-03T14:00:00Z,26.5255,-82.0032,2.53,5.23,1111122 
SCCF RECON,ioos:station:SCCF:13:1,2013-05-03T15:00:00Z,26.5255,-82.0032,2.54,5.45,1111122 
SCCF RECON,ioos:station:SCCF:13:1,2013-05-03T16:00:00Z,26.5255,-82.0032,2.5,5.58,1111122 
SCCF RECON,ioos:station:SCCF:13:1,2013-05-03T17:00:00Z,26.5255,-82.0032,2.42,5.43,1111122 
SCCF RECON,ioos:station:SCCF:13:1,2013-05-03T18:00:00Z,26.5255,-82.0032,2.367,6.11,1111122 
SCCF RECON,ioos:station:SCCF:13:1,2013-05-03T19:00:00Z,26.5255,-82.0032,2.32,6.49,1111122 
SCCF RECON,ioos:station:SCCF:13:1,2013-05-03T20:00:00Z,26.5255,-82.0032,2.29,6.58,1111122 
SCCF RECON,ioos:station:SCCF:13:1,2013-05-03T21:00:00Z,26.5255,-82.0032,2.311,6.5,1111122 
SCCF RECON,ioos:station:SCCF:13:1,2013-05-03T22:00:00Z,26.5255,-82.0032,2.361,6.34,1111122 
SCCF RECON,ioos:station:SCCF:13:1,2013-05-03T23:00:00Z,26.5255,-82.0032,2.42,6.08,1111122 
SCCF RECON,ioos:station:SCCF:13:1,2013-05-04T00:00:00Z,26.5255,-82.0032,2.441,6.59,1111122 
SCCF RECON,ioos:station:SCCF:13:1,2013-05-04T01:00:00Z,26.5255,-82.0032,2.48,6.73,1111122 
SCCF RECON,ioos:station:SCCF:13:1,2013-05-04T02:00:00Z,26.5255,-82.0032,2.484,6.7,1111122 
SCCF RECON,ioos:station:SCCF:13:1,2013-05-04T03:00:00Z,26.5255,-82.0032,2.434,6.43,1111122 
SCCF RECON,ioos:station:SCCF:13:1,2013-05-04T04:00:00Z,26.5255,-82.0032,2.36,6.46,1111122 
SCCF RECON,ioos:station:SCCF:13:1,2013-05-04T05:00:00Z,26.5255,-82.0032,2.3,5.87,1111122 
SCCF RECON,ioos:station:SCCF:13:1,2013-05-04T06:00:00Z,26.5255,-82.0032,2.24,5.77,1111122 
SCCF RECON,ioos:station:SCCF:13:1,2013-05-04T07:00:00Z,26.5255,-82.0032,2.164,5.84,1111122 
SCCF RECON,ioos:station:SCCF:13:1,2013-05-04T08:00:00Z,26.5255,-82.0032,2.111,5.89,1111122 
SCCF RECON,ioos:station:SCCF:13:1,2013-05-04T09:00:00Z,26.5255,-82.0032,2.1,6.01,1111122 
SCCF RECON,ioos:station:SCCF:13:1,2013-05-04T10:00:00Z,26.5255,-82.0032,2.17,6.04,1111122 
SCCF RECON,ioos:station:SCCF:13:1,2013-05-04T11:00:00Z,26.5255,-82.0032,2.29,5.78,1111122 
SCCF RECON,ioos:station:SCCF:13:1,2013-05-04T12:00:00Z,26.5255,-82.0032,2.36,5.46,1111122 
SCCF RECON,ioos:station:SCCF:13:1,2013-05-04T13:00:00Z,26.5255,-82.0032,2.398,5.51,1111122 
SCCF RECON,ioos:station:SCCF:13:1,2013-05-04T14:00:00Z,26.5255,-82.0032,2.441,5.86,1111122 
SCCF RECON,ioos:station:SCCF:13:1,2013-05-04T15:00:00Z,26.5255,-82.0032,2.467,6.09,1111122 
SCCF RECON,ioos:station:SCCF:13:1,2013-05-04T16:00:00Z,26.5255,-82.0032,2.46,6.24,1111122 
SCCF RECON,ioos:station:SCCF:13:1,2013-05-04T17:00:00Z,26.5255,-82.0032,2.405,6.29,1111122 
SCCF RECON,ioos:station:SCCF:13:1,2013-05-04T18:00:00Z,26.5255,-82.0032,2.328,6.59,1111122 
SCCF RECON,ioos:station:SCCF:13:1,2013-05-04T19:00:00Z,26.5255,-82.0032,2.265,6.87,1111122 
SCCF RECON,ioos:station:SCCF:13:1,2013-05-04T20:00:00Z,26.5255,-82.0032,2.216,7.07,1111122 
SCCF RECON,ioos:station:SCCF:13:1,2013-05-04T21:00:00Z,26.5255,-82.0032,2.18,7.13,1111122 
SCCF RECON,ioos:station:SCCF:13:1,2013-05-04T22:00:00Z,26.5255,-82.0032,2.18,7.07,1111122 
SCCF RECON,ioos:station:SCCF:13:1,2013-05-04T23:00:00Z,26.5255,-82.0032,2.211,6.99,1111122 
SCCF RECON,ioos:station:SCCF:13:1,2013-05-05T00:00:00Z,26.5255,-82.0032,2.295,6.83,1111122 
SCCF RECON,ioos:station:SCCF:13:1,2013-05-05T01:00:00Z,26.5255,-82.0032,2.389,6.34,1111122 
SCCF RECON,ioos:station:SCCF:13:1,2013-05-05T02:00:00Z,26.5255,-82.0032,2.44,6.58,1111122 
SCCF RECON,ioos:station:SCCF:13:1,2013-05-05T03:00:00Z,26.5255,-82.0032,2.45,6.67,1111122 
SCCF RECON,ioos:station:SCCF:13:1,2013-05-05T04:00:00Z,26.5255,-82.0032,2.41,6.97,1111122 
SCCF RECON,ioos:station:SCCF:13:1,2013-05-05T05:00:00Z,26.5255,-82.0032,2.345,6.77,1111122 
SCCF RECON,ioos:station:SCCF:13:1,2013-05-05T06:00:00Z,26.5255,-82.0032,2.29,6.5,1111122 
SCCF RECON,ioos:station:SCCF:13:1,2013-05-05T07:00:00Z,26.5255,-82.0032,2.254,6.03,1111122 
SCCF RECON,ioos:station:SCCF:13:1,2013-05-05T08:00:00Z,26.5255,-82.0032,2.201,5.89,1111122 
SCCF RECON,ioos:station:SCCF:13:1,2013-05-05T09:00:00Z,26.5255,-82.0032,2.17,5.91,1111122 
SCCF RECON,ioos:station:SCCF:13:1,2013-05-05T10:00:00Z,26.5255,-82.0032,2.177,5.88,1111122 
SCCF RECON,ioos:station:SCCF:13:1,2013-05-05T11:00:00Z,26.5255,-82.0032,2.23,5.86,1111122 
SCCF RECON,ioos:station:SCCF:13:1,2013-05-05T12:00:00Z,26.5255,-82.0032,2.32,5.65,1111122 
SCCF RECON,ioos:station:SCCF:13:1,2013-05-05T13:00:00Z,26.5255,-82.0032,2.403,5.52,1111122 
SCCF RECON,ioos:station:SCCF:13:1,2013-05-05T14:00:00Z,26.5255,-82.0032,2.449,6.0,1111122 
SCCF RECON,ioos:station:SCCF:13:1,2013-05-05T15:00:00Z,26.5255,-82.0032,2.45,6.09,1111122 
SCCF RECON,ioos:station:SCCF:13:1,2013-05-05T16:00:00Z,26.5255,-82.0032,2.416,6.39,1111122 
SCCF RECON,ioos:station:SCCF:13:1,2013-05-05T17:00:00Z,26.5255,-82.0032,2.344,6.25,1111122 
SCCF RECON,ioos:station:SCCF:13:1,2013-05-05T18:00:00Z,26.5255,-82.0032,2.28,6.88,1111122 
SCCF RECON,ioos:station:SCCF:13:1,2013-05-05T19:00:00Z,26.5255,-82.0032,2.205,7.18,1111122 
SCCF RECON,ioos:station:SCCF:13:1,2013-05-05T20:00:00Z,26.5255,-82.0032,2.134,7.26,1111122 
SCCF RECON,ioos:station:SCCF:13:1,2013-05-05T21:00:00Z,26.5255,-82.0032,2.066,7.28,1111122 
SCCF RECON,ioos:station:SCCF:13:1,2013-05-05T22:00:00Z,26.5255,-82.0032,2.023,7.26,1111122 
SCCF RECON,ioos:station:SCCF:13:1,2013-05-05T23:00:00Z,26.5255,-82.0032,2.025,7.15,1111122 
SCCF RECON,ioos:station:SCCF:13:1,2013-05-06T00:00:00Z,26.5255,-82.0032,2.103,6.97,1111122 
SCCF RECON,ioos:station:SCCF:13:1,2013-05-06T01:00:00Z,26.5255,-82.0032,2.206,7.0,1111122 
SCCF RECON,ioos:station:SCCF:13:1,2013-05-06T02:00:00Z,26.5255,-82.0032,2.267,6.4,1111122 
SCCF RECON,ioos:station:SCCF:13:1,2013-05-06T03:00:00Z,26.5255,-82.0032,2.33,7.01,1111122 
SCCF RECON,ioos:station:SCCF:13:1,2013-05-06T04:00:00Z,26.5255,-82.0032,2.38,7.28,1111122 
SCCF RECON,ioos:station:SCCF:13:1,2013-05-06T05:00:00Z,26.5255,-82.0032,2.393,7.19,1111122 
SCCF RECON,ioos:station:SCCF:13:1,2013-05-06T06:00:00Z,26.5255,-82.0032,2.35,6.86,1111122 
SCCF RECON,ioos:station:SCCF:13:1,2013-05-06T07:00:00Z,26.5255,-82.0032,2.278,6.61,1111122 
SCCF RECON,ioos:station:SCCF:13:1,2013-05-06T08:00:00Z,26.5255,-82.0032,2.22,6.65,1111122 
SCCF RECON,ioos:station:SCCF:13:1,2013-05-06T09:00:00Z,26.5255,-82.0032,2.19,6.18,1111122 
SCCF RECON,ioos:station:SCCF:13:1,2013-05-06T10:00:00Z,26.5255,-82.0032,2.18,5.95,1111122 
SCCF RECON,ioos:station:SCCF:13:1,2013-05-06T11:00:00Z,26.5255,-82.0032,2.26,6.04,1111122 
SCCF RECON,ioos:station:SCCF:13:1,2013-05-06T12:00:00Z,26.5255,-82.0032,2.35,5.53,1111122 
SCCF RECON,ioos:station:SCCF:13:1,2013-05-06T13:00:00Z,26.5255,-82.0032,2.428,6.01,1111122 
SCCF RECON,ioos:station:SCCF:13:1,2013-05-06T14:00:00Z,26.5255,-82.0032,2.484,6.22,1111122 
SCCF RECON,ioos:station:SCCF:13:1,2013-05-06T15:00:00Z,26.5255,-82.0032,2.55,6.47,1111122 
SCCF RECON,ioos:station:SCCF:13:1,2013-05-06T16:00:00Z,26.5255,-82.0032,2.578,6.27,1111122 
SCCF RECON,ioos:station:SCCF:13:1,2013-05-06T17:00:00Z,26.5255,-82.0032,2.54,6.56,1111122 
SCCF RECON,ioos:station:SCCF:13:1,2013-05-06T18:00:00Z,26.5255,-82.0032,2.434,6.38,1111122 
SCCF RECON,ioos:station:SCCF:13:1,2013-05-06T19:00:00Z,26.5255,-82.0032,2.33,6.86,1111122 
SCCF RECON,ioos:station:SCCF:13:1,2013-05-06T20:00:00Z,26.5255,-82.0032,2.251,7.0,1111122 
SCCF RECON,ioos:station:SCCF:13:1,2013-05-06T21:00:00Z,26.5255,-82.0032,2.18,7.11,1111122 
SCCF RECON,ioos:station:SCCF:13:1,2013-05-06T22:00:00Z,26.5255,-82.0032,2.11,6.93,1111122 
SCCF RECON,ioos:station:SCCF:13:1,2013-05-06T23:00:00Z,26.5255,-82.0032,2.07,6.73,1111122 
SCCF RECON,ioos:station:SCCF:13:1,2013-05-07T00:00:00Z,26.5255,-82.0032,2.105,6.61,1111122 
SCCF RECON,ioos:station:SCCF:13:1,2013-05-07T01:00:00Z,26.5255,-82.0032,2.226,6.48,1111122 
SCCF RECON,ioos:station:SCCF:13:1,2013-05-07T02:00:00Z,26.5255,-82.0032,2.315,6.17,1111122 
SCCF RECON,ioos:station:SCCF:13:1,2013-05-07T03:00:00Z,26.5255,-82.0032,2.37,6.45,1111122 
SCCF RECON,ioos:station:SCCF:13:1,2013-05-07T04:00:00Z,26.5255,-82.0032,2.42,6.77,1111122 
SCCF RECON,ioos:station:SCCF:13:1,2013-05-07T05:00:00Z,26.5255,-82.0032,2.44,6.87,1111122 
SCCF RECON,ioos:station:SCCF:13:1,2013-05-07T06:00:00Z,26.5255,-82.0032,2.436,6.83,1111122 
SCCF RECON,ioos:station:SCCF:13:1,2013-05-07T07:00:00Z,26.5255,-82.0032,2.38,6.71,1111122 
SCCF RECON,ioos:station:SCCF:13:1,2013-05-07T08:00:00Z,26.5255,-82.0032,2.302,6.58,1111122 
SCCF RECON,ioos:station:SCCF:13:1,2013-05-07T09:00:00Z,26.5255,-82.0032,2.25,6.02,1111122 
SCCF RECON,ioos:station:SCCF:13:1,2013-05-07T10:00:00Z,26.5255,-82.0032,2.21,5.85,1111122 
SCCF RECON,ioos:station:SCCF:13:1,2013-05-07T11:00:00Z,26.5255,-82.0032,2.225,5.93,1111122 
SCCF RECON,ioos:station:SCCF:13:1,2013-05-07T12:00:00Z,26.5255,-82.0032,2.3,5.94,1111122 
SCCF RECON,ioos:station:SCCF:13:1,2013-05-07T13:00:00Z,26.5255,-82.0032,2.406,5.47,1111122 
SCCF RECON,ioos:station:SCCF:13:1,2013-05-07T14:00:00Z,26.5255,-82.0032,2.496,6.07,1111122 
SCCF RECON,ioos:station:SCCF:13:1,2013-05-07T15:00:00Z,26.5255,-82.0032,2.55,6.52,1111122 
SCCF RECON,ioos:station:SCCF:13:1,2013-05-07T16:00:00Z,26.5255,-82.0032,2.594,6.64,1111122 
SCCF RECON,ioos:station:SCCF:13:1,2013-05-07T17:00:00Z,26.5255,-82.0032,2.602,6.57,1111122 
SCCF RECON,ioos:station:SCCF:13:1,2013-05-07T18:00:00Z,26.5255,-82.0032,2.531,6.77,1111122 
SCCF RECON,ioos:station:SCCF:13:1,2013-05-07T19:00:00Z,26.5255,-82.0032,2.415,6.7,1111122 
SCCF RECON,ioos:station:SCCF:13:1,2013-05-07T20:00:00Z,26.5255,-82.0032,2.329,7.21,1111122 
SCCF RECON,ioos:station:SCCF:13:1,2013-05-07T21:00:00Z,26.5255,-82.0032,2.25,7.42,1111122 
SCCF RECON,ioos:station:SCCF:13:1,2013-05-07T22:00:00Z,26.5255,-82.0032,2.19,7.37,1111122 
SCCF RECON,ioos:station:SCCF:13:1,2013-05-07T23:00:00Z,26.5255,-82.0032,2.129,7.31,1111122 
SCCF RECON,ioos:station:SCCF:13:1,2013-05-08T00:00:00Z,26.5255,-82.0032,2.1,7.06,1111122 
SCCF RECON,ioos:station:SCCF:13:1,2013-05-08T01:00:00Z,26.5255,-82.0032,2.179,6.87,1111122 
SCCF RECON,ioos:station:SCCF:13:1,2013-05-08T02:00:00Z,26.5255,-82.0032,2.29,6.77,1111122 
SCCF RECON,ioos:station:SCCF:13:1,2013-05-08T03:00:00Z,26.5255,-82.0032,2.37,5.88,1111122 
SCCF RECON,ioos:station:SCCF:13:1,2013-05-08T04:00:00Z,26.5255,-82.0032,2.44,6.76,1111122 
SCCF RECON,ioos:station:SCCF:13:1,2013-05-08T05:00:00Z,26.5255,-82.0032,2.482,6.79,1111122 
SCCF RECON,ioos:station:SCCF:13:1,2013-05-08T06:00:00Z,26.5255,-82.0032,2.5,7.01,1111122 
SCCF RECON,ioos:station:SCCF:13:1,2013-05-08T07:00:00Z,26.5255,-82.0032,2.46,6.89,1111122 
SCCF RECON,ioos:station:SCCF:13:1,2013-05-08T08:00:00Z,26.5255,-82.0032,2.39,6.7,1111122 
SCCF RECON,ioos:station:SCCF:13:1,2013-05-08T09:00:00Z,26.5255,-82.0032,2.34,6.57,1111122 
SCCF RECON,ioos:station:SCCF:13:1,2013-05-08T10:00:00Z,26.5255,-82.0032,2.283,6.16,1111122 
SCCF RECON,ioos:station:SCCF:13:1,2013-05-08T11:00:00Z,26.5255,-82.0032,2.27,5.96,1111122 
SCCF RECON,ioos:station:SCCF:13:1,2013-05-08T12:00:00Z,26.5255,-82.0032,2.31,6.01,1111122 
SCCF RECON,ioos:station:SCCF:13:1,2013-05-08T13:00:00Z,26.5255,-82.0032,2.41,5.75,1111122 
SCCF RECON,ioos:station:SCCF:13:1,2013-05-08T14:00:00Z,26.5255,-82.0032,2.51,6.04,1111122 
SCCF RECON,ioos:station:SCCF:13:1,2013-05-08T15:00:00Z,26.5255,-82.0032,2.579,6.57,1111122 
SCCF RECON,ioos:station:SCCF:13:1,2013-05-08T16:00:00Z,26.5255,-82.0032,2.614,6.89,1111122 
SCCF RECON,ioos:station:SCCF:13:1,2013-05-08T17:00:00Z,26.5255,-82.0032,2.64,6.74,1111122 
SCCF RECON,ioos:station:SCCF:13:1,2013-05-08T18:00:00Z,26.5255,-82.0032,2.603,6.96,1111122 
SCCF RECON,ioos:station:SCCF:13:1,2013-05-08T19:00:00Z,26.5255,-82.0032,2.499,6.96,1111122 
SCCF RECON,ioos:station:SCCF:13:1,2013-05-08T20:00:00Z,26.5255,-82.0032,2.394,7.34,1111122 
SCCF RECON,ioos:station:SCCF:13:1,2013-05-08T21:00:00Z,26.5255,-82.0032,2.303,7.52,1111122 
SCCF RECON,ioos:station:SCCF:13:1,2013-05-08T22:00:00Z,26.5255,-82.0032,2.228,7.53,1111122 
SCCF RECON,ioos:station:SCCF:13:1,2013-05-08T23:00:00Z,26.5255,-82.0032,2.148,7.37,1111122 
SCCF RECON,ioos:station:SCCF:13:1,2013-05-09T00:00:00Z,26.5255,-82.0032,2.08,7.08,1111122 
SCCF RECON,ioos:station:SCCF:13:1,2013-05-09T01:00:00Z,26.5255,-82.0032,2.07,6.92,1111122 
SCCF RECON,ioos:station:SCCF:13:1,2013-05-09T02:00:00Z,26.5255,-82.0032,2.17,6.69,1111122 
SCCF RECON,ioos:station:SCCF:13:1,2013-05-09T03:00:00Z,26.5255,-82.0032,2.28,6.55,1111122 
SCCF RECON,ioos:station:SCCF:13:1,2013-05-09T04:00:00Z,26.5255,-82.0032,2.34,6.17,1111122 
SCCF RECON,ioos:station:SCCF:13:1,2013-05-09T05:00:00Z,26.5255,-82.0032,2.391,6.47,1111122 
SCCF RECON,ioos:station:SCCF:13:1,2013-05-09T06:00:00Z,26.5255,-82.0032,2.42,6.85,1111122 
SCCF RECON,ioos:station:SCCF:13:1,2013-05-09T07:00:00Z,26.5255,-82.0032,2.392,6.9,1111122 
SCCF RECON,ioos:station:SCCF:13:1,2013-05-09T08:00:00Z,26.5255,-82.0032,2.32,6.78,1111122 
SCCF RECON,ioos:station:SCCF:13:1,2013-05-09T09:00:00Z,26.5255,-82.0032,2.27,6.52,1111122 
SCCF RECON,ioos:station:SCCF:13:1,2013-05-09T10:00:00Z,26.5255,-82.0032,2.22,5.88,1111122 
SCCF RECON,ioos:station:SCCF:13:1,2013-05-09T11:00:00Z,26.5255,-82.0032,2.19,5.62,1111122 
SCCF RECON,ioos:station:SCCF:13:1,2013-05-09T12:00:00Z,26.5255,-82.0032,2.19,5.92,1111122 
SCCF RECON,ioos:station:SCCF:13:1,2013-05-09T13:00:00Z,26.5255,-82.0032,2.252,6.03,1111122 
SCCF RECON,ioos:station:SCCF:13:1,2013-05-09T14:00:00Z,26.5255,-82.0032,2.37,5.66,1111122 
SCCF RECON,ioos:station:SCCF:13:1,2013-05-09T15:00:00Z,26.5255,-82.0032,2.466,6.2,1111122 
SCCF RECON,ioos:station:SCCF:13:1,2013-05-09T16:00:00Z,26.5255,-82.0032,2.533,6.71,1111122 
SCCF RECON,ioos:station:SCCF:13:1,2013-05-09T17:00:00Z,26.5255,-82.0032,2.58,6.95,1111122 
SCCF RECON,ioos:station:SCCF:13:1,2013-05-09T18:00:00Z,26.5255,-82.0032,2.591,6.99,1111122 
SCCF RECON,ioos:station:SCCF:13:1,2013-05-09T19:00:00Z,26.5255,-82.0032,2.523,7.25,1111122 
SCCF RECON,ioos:station:SCCF:13:1,2013-05-09T20:00:00Z,26.5255,-82.0032,2.405,7.16,1111122 
SCCF RECON,ioos:station:SCCF:13:1,2013-05-09T21:00:00Z,26.5255,-82.0032,2.31,7.73,1111122 
SCCF RECON,ioos:station:SCCF:13:1,2013-05-09T22:00:00Z,26.5255,-82.0032,2.238,7.52,1111122 
SCCF RECON,ioos:station:SCCF:13:1,2013-05-09T23:00:00Z,26.5255,-82.0032,2.167,7.43,1111122 
SCCF RECON,ioos:station:SCCF:13:1,2013-05-10T00:00:00Z,26.5255,-82.0032,2.1,7.12,1111122 
SCCF RECON,ioos:station:SCCF:13:1,2013-05-10T01:00:00Z,26.5255,-82.0032,2.071,6.88,1111122 
SCCF RECON,ioos:station:SCCF:13:1,2013-05-10T02:00:00Z,26.5255,-82.0032,2.14,6.77,1111122 
SCCF RECON,ioos:station:SCCF:13:1,2013-05-10T03:00:00Z,26.5255,-82.0032,2.28,6.71,1111122 
SCCF RECON,ioos:station:SCCF:13:1,2013-05-10T04:00:00Z,26.5255,-82.0032,2.38,5.97,1111122 
SCCF RECON,ioos:station:SCCF:13:1,2013-05-10T05:00:00Z,26.5255,-82.0032,2.44,6.74,1111122 
SCCF RECON,ioos:station:SCCF:13:1,2013-05-10T06:00:00Z,26.5255,-82.0032,2.499,6.84,1111122 
SCCF RECON,ioos:station:SCCF:13:1,2013-05-10T07:00:00Z,26.5255,-82.0032,2.515,6.97,1111122 
SCCF RECON,ioos:station:SCCF:13:1,2013-05-10T08:00:00Z,26.5255,-82.0032,2.485,6.89,1111122 
SCCF RECON,ioos:station:SCCF:13:1,2013-05-10T09:00:00Z,26.5255,-82.0032,2.42,6.81,1111122 
SCCF RECON,ioos:station:SCCF:13:1,2013-05-10T10:00:00Z,26.5255,-82.0032,2.38,6.85,1111122 
SCCF RECON,ioos:station:SCCF:13:1,2013-05-10T11:00:00Z,26.5255,-82.0032,2.34,6.44,1111122 
SCCF RECON,ioos:station:SCCF:13:1,2013-05-10T12:00:00Z,26.5255,-82.0032,2.29,5.92,1111122 
SCCF RECON,ioos:station:SCCF:13:1,2013-05-10T13:00:00Z,26.5255,-82.0032,2.311,5.96,1111122 
SCCF RECON,ioos:station:SCCF:13:1,2013-05-10T14:00:00Z,26.5255,-82.0032,2.43,5.99,1111122 
SCCF RECON,ioos:station:SCCF:13:1,2013-05-10T15:00:00Z,26.5255,-82.0032,2.536,6.27,1111122 
SCCF RECON,ioos:station:SCCF:13:1,2013-05-10T16:00:00Z,26.5255,-82.0032,2.608,6.83,1111122 
SCCF RECON,ioos:station:SCCF:13:1,2013-05-10T17:00:00Z,26.5255,-82.0032,2.643,7.12,1111122 
SCCF RECON,ioos:station:SCCF:13:1,2013-05-10T18:00:00Z,26.5255,-82.0032,2.671,7.0,1111122 
SCCF RECON,ioos:station:SCCF:13:1,2013-05-10T19:00:00Z,26.5255,-82.0032,2.661,7.19,1111122 
SCCF RECON,ioos:station:SCCF:13:1,2013-05-10T20:00:00Z,26.5255,-82.0032,2.57,7.2,1111122 
SCCF RECON,ioos:station:SCCF:13:1,2013-05-10T21:00:00Z,26.5255,-82.0032,2.444,7.36,1111122 
SCCF RECON,ioos:station:SCCF:13:1,2013-05-10T22:00:00Z,26.5255,-82.0032,2.342,7.51,1111122 
SCCF RECON,ioos:station:SCCF:13:1,2013-05-10T23:00:00Z,26.5255,-82.0032,2.273,7.35,1111122 
SCCF RECON,ioos:station:SCCF:13:1,2013-05-11T00:00:00Z,26.5255,-82.0032,2.2,7.12,1111122 
SCCF RECON,ioos:station:SCCF:13:1,2013-05-11T01:00:00Z,26.5255,-82.0032,2.13,6.86,1111122 
SCCF RECON,ioos:station:SCCF:13:1,2013-05-11T02:00:00Z,26.5255,-82.0032,2.11,6.7,1111122 
SCCF RECON,ioos:station:SCCF:13:1,2013-05-11T03:00:00Z,26.5255,-82.0032,2.22,6.51,1111122 
SCCF RECON,ioos:station:SCCF:13:1,2013-05-11T04:00:00Z,26.5255,-82.0032,2.34,6.35,1111122 
SCCF RECON,ioos:station:SCCF:13:1,2013-05-11T05:00:00Z,26.5255,-82.0032,2.4,5.31,1111122 
SCCF RECON,ioos:station:SCCF:13:1,2013-05-11T06:00:00Z,26.5255,-82.0032,2.46,6.29,1111122 
SCCF RECON,ioos:station:SCCF:13:1,2013-05-11T07:00:00Z,26.5255,-82.0032,2.496,6.33,1111122 
SCCF RECON,ioos:station:SCCF:13:1,2013-05-11T08:00:00Z,26.5255,-82.0032,2.495,6.44,1111122 
SCCF RECON,ioos:station:SCCF:13:1,2013-05-11T09:00:00Z,26.5255,-82.0032,2.48,6.4,1111122 
SCCF RECON,ioos:station:SCCF:13:1,2013-05-11T10:00:00Z,26.5255,-82.0032,2.46,6.28,1111122 
SCCF RECON,ioos:station:SCCF:13:1,2013-05-11T11:00:00Z,26.5255,-82.0032,2.41,6.24,1111122 
SCCF RECON,ioos:station:SCCF:13:1,2013-05-11T12:00:00Z,26.5255,-82.0032,2.379,5.87,1111122 
SCCF RECON,ioos:station:SCCF:13:1,2013-05-11T13:00:00Z,26.5255,-82.0032,2.377,5.59,1111122 
SCCF RECON,ioos:station:SCCF:13:1,2013-05-11T14:00:00Z,26.5255,-82.0032,2.44,5.45,1111122 
SCCF RECON,ioos:station:SCCF:13:1,2013-05-11T15:00:00Z,26.5255,-82.0032,2.549,5.43,1111122 
SCCF RECON,ioos:station:SCCF:13:1,2013-05-11T16:00:00Z,26.5255,-82.0032,2.639,6.62,1111122 
SCCF RECON,ioos:station:SCCF:13:1,2013-05-11T17:00:00Z,26.5255,-82.0032,2.68,7.09,1111122 
SCCF RECON,ioos:station:SCCF:13:1,2013-05-11T18:00:00Z,26.5255,-82.0032,2.7,7.04,1111122 
SCCF RECON,ioos:station:SCCF:13:1,2013-05-11T19:00:00Z,26.5255,-82.0032,2.696,7.24,1111122 
SCCF RECON,ioos:station:SCCF:13:1,2013-05-11T20:00:00Z,26.5255,-82.0032,2.66,7.32,1111122 